AFL641 LTFM-URSS

Flight info

Callsign AFL641
Flight time 1h 29m
Altitude 35000
Route EKAWE1D/35L EKAWE UT641 BIMVO UM859 RUVOM UN743 ODIRA/K0822F350 G487 DIRUN DIRUN1K
Aircraft A320/M-SDE2E3FGHIJ1RWY/LB1U1

Departure

Time 2026-05-04 15:42
Airport İstanbul Airport (LTFM)

Arrival

Time 2026-05-04 17:11
Airport Sochi International Airport (URSS)
Time Latitude Longitude Altitude Speed Heading
2026-05-04 15:07 41.26015 28.73559 334 ft 0 kts 107°
2026-05-04 15:25 41.26015 28.73558 334 ft 0 kts 107°
2026-05-04 15:30 41.26050 28.73483 333 ft 4 kts 157°
2026-05-04 15:30 41.26066 28.73479 329 ft 0 kts 197°
2026-05-04 15:32 41.26032 28.73465 331 ft 12 kts 196°
2026-05-04 15:33 41.25881 28.73403 333 ft 10 kts 197°
2026-05-04 15:34 41.25822 28.73203 334 ft 12 kts 269°
2026-05-04 15:34 41.25771 28.73132 333 ft 17 kts 183°
2026-05-04 15:34 41.25543 28.73137 334 ft 15 kts 178°
2026-05-04 15:35 41.25358 28.73133 334 ft 12 kts 204°
2026-05-04 15:35 41.25341 28.73046 334 ft 9 kts 270°
2026-05-04 15:35 41.25340 28.72967 334 ft 8 kts 269°
2026-05-04 15:36 41.25337 28.72694 334 ft 18 kts 268°
2026-05-04 15:36 41.25334 28.72517 332 ft 20 kts 269°
2026-05-04 15:36 41.25333 28.72328 332 ft 20 kts 273°
2026-05-04 15:37 41.25424 28.72215 331 ft 19 kts 351°
2026-05-04 15:37 41.25557 28.72210 334 ft 19 kts 359°
2026-05-04 15:37 41.25692 28.72207 330 ft 20 kts 360°
2026-05-04 15:37 41.25829 28.72224 333 ft 20 kts
2026-05-04 15:38 41.25967 28.72248 332 ft 20 kts
2026-05-04 15:38 41.26103 28.72272 332 ft 17 kts
2026-05-04 15:38 41.26203 28.72297 334 ft 10 kts 37°
2026-05-04 15:38 41.26207 28.72383 334 ft 5 kts 89°
2026-05-04 15:39 41.26208 28.72384 334 ft 0 kts 89°
2026-05-04 15:40 41.26208 28.72403 334 ft 9 kts 89°
2026-05-04 15:40 41.26209 28.72500 332 ft 9 kts 89°
2026-05-04 15:41 41.26235 28.72523 331 ft 5 kts 359°
2026-05-04 15:41 41.26277 28.72522 330 ft 8 kts 359°
2026-05-04 15:41 41.26429 28.72519 333 ft 50 kts 359°
2026-05-04 15:41 41.27002 28.72508 332 ft 111 kts 359°
2026-05-04 15:42 41.27945 28.72488 333 ft 157 kts 358°
2026-05-04 15:42 41.29083 28.72472 807 ft 165 kts 358°
2026-05-04 15:42 41.30227 28.72450 1585 ft 163 kts
2026-05-04 15:42 41.31352 28.72451 2369 ft 160 kts
2026-05-04 15:43 41.32460 28.72465 3068 ft 158 kts
2026-05-04 15:43 41.33549 28.72478 3665 ft 161 kts
2026-05-04 15:43 41.34743 28.72490 3912 ft 183 kts
2026-05-04 15:43 41.36105 28.72503 4198 ft 208 kts
2026-05-04 15:44 41.37637 28.72509 4630 ft 231 kts 357°
2026-05-04 15:44 41.39211 28.71932 5367 ft 240 kts 336°
2026-05-04 15:44 41.40732 28.70972 6289 ft 242 kts 336°
2026-05-04 15:44 41.42261 28.69992 7171 ft 245 kts 337°
2026-05-04 15:45 41.43808 28.68997 8022 ft 249 kts 338°
2026-05-04 15:45 41.45375 28.67988 8884 ft 252 kts 339°
2026-05-04 15:45 41.46968 28.66966 9736 ft 256 kts 340°
2026-05-04 15:45 41.48575 28.65937 10345 ft 268 kts 340°
2026-05-04 15:46 41.50330 28.64825 10581 ft 291 kts 340°
2026-05-04 15:46 41.52207 28.63634 11059 ft 304 kts 339°
2026-05-04 15:46 41.54179 28.62579 11710 ft 306 kts 351°
2026-05-04 15:46 41.56289 28.62442 12378 ft 305 kts 11°
2026-05-04 15:47 41.58299 28.63355 13057 ft 308 kts 30°
2026-05-04 15:47 41.59940 28.65223 13728 ft 315 kts 50°
2026-05-04 15:47 41.61171 28.67684 14351 ft 321 kts 55°
2026-05-04 15:47 41.62380 28.70215 14957 ft 325 kts 55°
2026-05-04 15:48 41.63605 28.72781 15558 ft 329 kts 55°
2026-05-04 15:48 41.64844 28.75370 16175 ft 333 kts 55°
2026-05-04 15:48 41.67374 28.80634 17402 ft 340 kts 55°
2026-05-04 15:49 41.68624 28.83349 17988 ft 346 kts 61°
2026-05-04 15:49 41.69401 28.86436 18530 ft 353 kts 72°
2026-05-04 15:49 41.70009 28.89635 19103 ft 355 kts 72°
2026-05-04 15:49 41.70595 28.92804 19689 ft 356 kts 72°
2026-05-04 15:50 41.71180 28.96024 20290 ft 357 kts 72°
2026-05-04 15:50 41.71775 28.99294 20889 ft 357 kts 72°
2026-05-04 15:50 41.72358 29.02488 21446 ft 358 kts 72°
2026-05-04 15:50 41.72955 29.05735 22022 ft 359 kts 72°
2026-05-04 15:51 41.73554 29.08988 22572 ft 360 kts 72°
2026-05-04 15:51 41.74157 29.12246 23128 ft 361 kts 71°
2026-05-04 15:51 41.74762 29.15522 23646 ft 363 kts 71°
2026-05-04 15:51 41.75366 29.18806 24066 ft 364 kts 71°
2026-05-04 15:52 41.75972 29.22105 24481 ft 366 kts 71°
2026-05-04 15:52 41.76583 29.25433 24868 ft 369 kts 71°
2026-05-04 15:52 41.77195 29.28780 25252 ft 371 kts 71°
2026-05-04 15:52 41.77807 29.32144 25643 ft 373 kts 72°
2026-05-04 15:53 41.78422 29.35537 26018 ft 375 kts 72°
2026-05-04 15:53 41.79040 29.38950 26386 ft 378 kts 72°
2026-05-04 15:53 41.79660 29.42374 26750 ft 380 kts 72°
2026-05-04 15:53 41.80284 29.45830 27132 ft 382 kts 72°
2026-05-04 15:54 41.80909 29.49295 27496 ft 384 kts 72°
2026-05-04 15:54 41.81539 29.52795 27857 ft 386 kts 72°
2026-05-04 15:54 41.82168 29.56303 28224 ft 388 kts 72°
2026-05-04 15:54 41.82800 29.59829 28579 ft 390 kts 72°
2026-05-04 15:55 41.83433 29.63374 28943 ft 392 kts 72°
2026-05-04 15:55 41.84072 29.66946 29297 ft 394 kts 72°
2026-05-04 15:55 41.84711 29.70525 29635 ft 396 kts 72°
2026-05-04 15:55 41.85352 29.74121 29967 ft 397 kts 72°
2026-05-04 15:56 41.85996 29.77736 30247 ft 399 kts 72°
2026-05-04 15:56 41.86421 29.80137 30423 ft 400 kts 72°
2026-05-04 15:56 41.87281 29.85009 30774 ft 403 kts 72°
2026-05-04 15:56 41.87925 29.88677 31040 ft 404 kts 72°
2026-05-04 15:57 41.88350 29.91109 31207 ft 405 kts 72°
2026-05-04 15:57 41.88995 29.94789 31526 ft 405 kts 72°
2026-05-04 15:57 41.89640 29.98463 31903 ft 404 kts 72°
2026-05-04 15:57 41.90283 30.02125 32253 ft 403 kts 72°
2026-05-04 15:58 41.90926 30.05781 32622 ft 402 kts 72°
2026-05-04 15:58 41.91564 30.09427 32970 ft 401 kts 72°
2026-05-04 15:58 41.92198 30.13065 33340 ft 400 kts 72°
2026-05-04 15:58 41.92830 30.16696 33704 ft 399 kts 72°
2026-05-04 15:59 41.93459 30.20321 34046 ft 398 kts 72°
2026-05-04 15:59 41.94084 30.23941 34300 ft 398 kts 73°
2026-05-04 15:59 41.94714 30.27574 34510 ft 400 kts 73°
2026-05-04 15:59 41.95345 30.31220 34699 ft 401 kts 73°
2026-05-04 16:00 41.95975 30.34884 34889 ft 403 kts 73°
2026-05-04 16:00 41.96605 30.38548 34947 ft 401 kts 73°
2026-05-04 16:00 41.97850 30.45832 34954 ft 398 kts 73°
2026-05-04 16:01 41.99076 30.53041 34943 ft 398 kts 73°
2026-05-04 16:01 41.99819 30.60452 34944 ft 405 kts 84°
2026-05-04 16:02 41.99870 30.68034 34941 ft 406 kts 85°
2026-05-04 16:03 41.99945 30.79423 34937 ft 406 kts 85°
2026-05-04 16:03 41.99983 30.87024 34932 ft 407 kts 85°
2026-05-04 16:04 42.00021 30.94636 34922 ft 407 kts 85°
2026-05-04 16:04 42.00818 31.05894 34917 ft 401 kts 71°
2026-05-04 16:05 42.02371 31.13100 34905 ft 401 kts 71°
2026-05-04 16:06 42.04682 31.23938 34897 ft 402 kts 72°
2026-05-04 16:07 42.07755 31.38450 34891 ft 404 kts 72°
2026-05-04 16:08 42.10814 31.53017 34885 ft 405 kts 72°
2026-05-04 16:09 42.14614 31.71275 34882 ft 406 kts 73°
2026-05-04 16:10 42.17651 31.85957 34886 ft 407 kts 73°
2026-05-04 16:11 42.20671 32.00670 34885 ft 407 kts 74°
2026-05-04 16:12 42.25175 32.22785 34884 ft 408 kts 73°
2026-05-04 16:13 42.28562 32.37352 34887 ft 408 kts 72°
2026-05-04 16:14 42.31933 32.51995 34889 ft 408 kts 73°
2026-05-04 16:16 42.36087 32.70362 34892 ft 409 kts 73°
2026-05-04 16:17 42.40206 32.88773 34888 ft 409 kts 74°
2026-05-04 16:18 42.43480 33.03539 34893 ft 410 kts 75°
2026-05-04 16:19 42.45220 33.14803 34891 ft 408 kts 91°
2026-05-04 16:19 42.44473 33.22404 34890 ft 408 kts 99°
2026-05-04 16:20 42.42103 33.41355 34895 ft 409 kts 99°
2026-05-04 16:22 42.39706 33.60314 34897 ft 409 kts 100°
2026-05-04 16:23 42.36776 33.83063 34894 ft 409 kts 101°
2026-05-04 16:25 42.33815 34.05813 34902 ft 410 kts 101°
2026-05-04 16:26 42.30303 34.32337 34913 ft 410 kts 102°
2026-05-04 16:27 42.29735 34.39991 34902 ft 413 kts 88°
2026-05-04 16:28 42.31512 34.51444 34895 ft 417 kts 79°
2026-05-04 16:29 42.36158 34.78186 34888 ft 419 kts 80°
2026-05-04 16:31 42.39475 34.97360 34893 ft 421 kts 80°
2026-05-04 16:32 42.43411 35.20571 34885 ft 423 kts 81°
2026-05-04 16:33 42.46028 35.36119 34887 ft 424 kts 81°
2026-05-04 16:34 42.47988 35.47825 34889 ft 425 kts 81°
2026-05-04 16:35 42.51859 35.71296 34885 ft 427 kts 82°
2026-05-04 16:36 42.53791 35.83098 34883 ft 428 kts 82°
2026-05-04 16:37 42.55721 35.94929 34887 ft 428 kts 82°
2026-05-04 16:38 42.58261 36.10738 34886 ft 429 kts 82°
2026-05-04 16:39 42.61211 36.29203 34885 ft 430 kts 82°
2026-05-04 16:40 42.63713 36.45090 34887 ft 430 kts 82°
2026-05-04 16:41 42.66821 36.65008 34881 ft 432 kts 83°
2026-05-04 16:43 42.69901 36.85025 34882 ft 433 kts 83°
2026-05-04 16:43 42.72541 36.96847 34881 ft 441 kts 72°
2026-05-04 16:44 42.77293 37.12297 34644 ft 444 kts 72°
2026-05-04 16:45 42.79647 37.20004 33589 ft 439 kts 72°
2026-05-04 16:46 42.83108 37.31359 31975 ft 428 kts 72°
2026-05-04 16:46 42.85354 37.38746 30929 ft 422 kts 72°
2026-05-04 16:47 42.87579 37.46093 29887 ft 416 kts 72°
2026-05-04 16:47 42.89612 37.53350 29083 ft 397 kts 81°
2026-05-04 16:48 42.91447 37.63797 28790 ft 367 kts 81°
2026-05-04 16:48 42.92042 37.67195 28688 ft 369 kts 81°
2026-05-04 16:49 42.93219 37.74021 28507 ft 369 kts 81°
2026-05-04 16:49 42.94396 37.80842 28320 ft 370 kts 81°
2026-05-04 16:50 42.95571 37.87674 28135 ft 369 kts 81°
2026-05-04 16:50 42.96733 37.94490 27953 ft 369 kts 81°
2026-05-04 16:51 42.97894 38.01314 27409 ft 368 kts 82°
2026-05-04 16:51 42.98470 38.04708 26985 ft 365 kts 82°
2026-05-04 16:51 42.99611 38.11419 26174 ft 361 kts 81°
2026-05-04 16:52 43.00732 38.18055 25348 ft 357 kts 82°
2026-05-04 16:52 43.01283 38.21351 24927 ft 355 kts 82°
2026-05-04 16:53 43.02375 38.27904 24067 ft 353 kts 82°
2026-05-04 16:53 43.04009 38.37675 22688 ft 350 kts 82°
2026-05-04 16:54 43.04547 38.40910 22240 ft 348 kts 82°
2026-05-04 16:55 43.06661 38.53710 20495 ft 343 kts 82°
2026-05-04 16:55 43.07713 38.60064 19638 ft 342 kts 82°
2026-05-04 16:56 43.08750 38.66407 18781 ft 342 kts 82°
2026-05-04 16:56 43.10304 38.75942 17467 ft 341 kts 82°
2026-05-04 16:57 43.10815 38.79064 17050 ft 340 kts 82°
2026-05-04 16:57 43.11836 38.85357 16224 ft 338 kts 82°
2026-05-04 16:58 43.13340 38.94743 14995 ft 335 kts 82°
2026-05-04 16:58 43.13840 38.97856 14586 ft 335 kts 82°
2026-05-04 16:59 43.14835 39.04069 13776 ft 333 kts 82°
2026-05-04 17:00 43.16779 39.16210 12273 ft 322 kts 82°
2026-05-04 17:00 43.18149 39.24787 11127 ft 295 kts 82°
2026-05-04 17:01 43.19009 39.30267 10335 ft 294 kts 82°
2026-05-04 17:01 43.19854 39.35681 9542 ft 284 kts 82°
2026-05-04 17:02 43.20662 39.40786 8751 ft 263 kts 82°
2026-05-04 17:02 43.21408 39.45564 8016 ft 254 kts 82°
2026-05-04 17:03 43.21777 39.47934 7646 ft 254 kts 82°
2026-05-04 17:03 43.22137 39.50268 7271 ft 254 kts 82°
2026-05-04 17:03 43.22870 39.55025 6495 ft 253 kts 82°
2026-05-04 17:04 43.23593 39.59712 5701 ft 252 kts 81°
2026-05-04 17:04 43.24315 39.64410 4896 ft 251 kts 80°
2026-05-04 17:05 43.25036 39.69086 4074 ft 250 kts 79°
2026-05-04 17:05 43.25749 39.73728 3249 ft 248 kts 79°
2026-05-04 17:06 43.26453 39.78310 2628 ft 234 kts 78°
2026-05-04 17:06 43.26842 39.80369 2574 ft 217 kts 68°
2026-05-04 17:07 43.28756 39.83455 2402 ft 216 kts 31°
2026-05-04 17:07 43.29631 39.84111 2336 ft 216 kts 28°
2026-05-04 17:07 43.31364 39.85399 2209 ft 206 kts 28°
2026-05-04 17:07 43.32599 39.86328 2108 ft 199 kts 29°
2026-05-04 17:08 43.33762 39.87203 2046 ft 182 kts 28°
2026-05-04 17:08 43.35817 39.88744 1684 ft 157 kts 28°
2026-05-04 17:08 43.36735 39.89432 1474 ft 146 kts 27°
2026-05-04 17:09 43.37611 39.90089 1287 ft 142 kts 27°
2026-05-04 17:09 43.38473 39.90735 1101 ft 141 kts 27°
2026-05-04 17:09 43.39324 39.91373 936 ft 139 kts 27°
2026-05-04 17:10 43.40989 39.92623 636 ft 138 kts 29°
2026-05-04 17:10 43.43558 39.94547 93 ft 140 kts 32°
2026-05-04 17:11 43.44335 39.95147 82 ft 111 kts 27°
2026-05-04 17:11 43.44863 39.95536 89 ft 62 kts 28°
2026-05-04 17:11 43.45252 39.95827 94 ft 14 kts 28°
2026-05-04 17:12 43.45292 39.95820 95 ft 11 kts 295°
2026-05-04 17:12 43.45237 39.95663 91 ft 0 kts 239°
2026-05-04 17:14 43.45110 39.95402 91 ft 13 kts 239°
2026-05-04 17:14 43.45067 39.95284 90 ft 14 kts 245°
2026-05-04 17:14 43.44959 39.95025 81 ft 18 kts 241°
2026-05-04 17:15 43.44898 39.94848 71 ft 23 kts 245°
2026-05-04 17:15 43.44766 39.94458 71 ft 15 kts 245°
2026-05-04 17:16 43.44746 39.94336 68 ft 4 kts 332°
2026-05-04 17:16 43.44793 39.94311 72 ft 0 kts 334°